1530648000.14,7809,16.88,74124.5,1.95,0.21,-0.65,0,*6B
1530648001.33,7810,16.88,74124.3,1.95,0.13,-0.77,0,*61
1530648002.55,7811,16.88,74126.5,1.93,-0.03,-0.85,0,*77
1530648003.77,7812,16.88,74126.3,1.93,-0.11,-0.97,0,*44
1530648005.0,7813,16.88,74124.8,1.93,-0.15,-1.09,0,*77
1530648006.25,7814,16.88,74124.3,1.93,-0.27,-1.09,0,*71
1530648007.47,7815,16.88,74124.8,1.93,-0.37,-1.01,0,*79
1530648008.68,7816,16.88,74126.3,1.95,-0.41,-1.13,0,*7E
1530648009.9,7817,16.88,74124.8,1.93,-0.53,-1.13,0,*7A
1530648011.12,7818,16.88,74120.5,1.93,-0.61,-1.13,0,*74
1530648012.35,7819,16.88,74124.8,1.93,-0.73,-1.09,0,*7D
1530648013.57,7820,16.88,74126.8,1.93,-0.53,-0.97,0,*43
1530648014.77,7821,16.88,74126.5,1.95,-0.49,-0.89,0,*40
1530648015.97,7822,16.88,74124.8,1.93,-0.49,-0.77,0,*44
1530648017.19,7823,16.88,74124.5,1.93,-0.41,-0.85,0,*40
1530648018.4,7824,16.88,74126.3,1.93,-0.41,-0.77,0,*4A
1530648019.59,7825,16.88,74120.8,1.93,-0.33,-0.65,0,*4D
1530648020.79,7826,16.88,74124.0,1.93,-0.49,-0.73,0,*44
1530648022.01,7827,16.88,74122.0,1.93,-0.49,-0.85,0,*4C
1530648023.23,7828,16.88,74124.5,1.93,-0.61,-0.85,0,*49
1530648024.44,7829,16.88,74124.8,1.93,-0.61,-0.85,0,*48
1530648025.63,7830,16.88,74122.8,1.95,-0.61,-0.85,0,*46
1530648026.83,7831,16.88,74124.5,1.93,-0.65,-0.77,0,*48
1530648028.03,7832,16.88,74124.5,1.93,-0.61,-0.77,0,*4F
1530648029.23,7833,16.88,74124.8,1.93,-0.61,-0.77,0,*4E
1530648030.43,7834,16.88,74124.8,1.91,-0.77,-0.89,0,*4D
1530648031.61,7835,16.88,74122.0,1.91,-0.69,-0.77,0,*42
1530648032.81,7836,16.88,74124.3,1.93,-0.53,-0.65,0,*49
1530648033.98,7837,16.88,74124.3,1.91,-0.45,-0.65,0,*4D
1530648035.17,7838,16.88,74126.0,1.89,-0.53,-0.65,0,*4C
1530648036.38,7839,16.88,74120.5,1.93,-0.37,-0.41,0,*42
1530648037.56,7840,16.88,74124.8,1.91,-0.37,-0.45,0,*4A
1530648038.73,7841,16.94,74128.3,1.91,-0.37,-0.53,0,*4C
1530648039.91,7842,16.88,74124.3,1.91,-0.37,-0.57,0,*4B
1530648041.09,7843,16.88,74126.3,1.91,-0.37,-0.45,0,*49
1530648042.29,7844,16.88,74124.5,1.89,-0.37,-0.57,0,*44
1530648043.46,7845,16.88,74126.0,1.91,-0.37,-0.57,0,*4C
1530648044.66,7846,16.88,74124.3,1.89,-0.37,-0.65,0,*47
1530648045.84,7847,16.88,74120.3,1.91,-0.41,-0.69,0,*42
1530648047.02,7848,16.88,74124.0,1.91,-0.41,-0.77,0,*42
1530648048.2,7849,16.88,74120.8,1.91,-0.37,-0.77,0,*42
1530648049.4,7850,16.88,74122.8,1.93,-0.37,-0.77,0,*48
1530648050.63,7851,16.88,74122.5,1.93,-0.41,-0.85,0,*45
1530648051.84,7852,16.88,74124.3,1.91,-0.69,-1.05,0,*77
1530648053.04,7853,16.88,74124.3,1.91,-0.81,-1.13,0,*77
1530648054.24,7854,16.88,74120.5,1.91,-0.93,-1.29,0,*7A
1530648055.49,7855,16.88,74120.5,1.91,-1.05,-1.39,0,*44
1530648056.68,7856,16.88,74124.8,1.91,-1.17,-1.33,0,*4E
1530648057.89,7857,16.88,74122.0,1.91,-1.33,-1.39,0,*43
1530648059.07,7858,16.88,74122.5,1.91,-1.51,-1.33,0,*42
1530648060.3,7859,16.88,74120.5,1.89,-1.55,-1.39,0,*44
1530648061.49,7860,16.88,74120.8,1.91,-1.75,-1.29,0,*44
1530648062.69,7861,16.88,74120.8,1.89,-1.75,-1.17,0,*41
1530648063.9,7862,16.88,74122.0,1.91,-1.79,-1.05,0,*44
1530648065.1,7863,16.88,74120.5,1.91,-1.75,-0.93,0,*77
1530648066.28,7864,16.88,74120.3,1.91,-1.75,-0.77,0,*7A
1530648067.46,7865,16.88,74122.0,1.91,-1.67,-0.65,0,*7B
1530648068.64,7866,16.88,74122.8,1.91,-1.63,-0.57,0,*7D
1530648069.85,7867,16.88,74126.0,1.91,-1.43,-0.53,0,*7A
1530648071.06,7868,16.88,74124.0,1.91,-1.43,-0.45,0,*72
1530648072.29,7869,16.88,74122.5,1.89,-1.39,-0.41,0,*73
1530648073.51,7870,16.88,74120.5,1.91,-1.39,-0.37,0,*73
1530648074.7,7871,16.88,74120.3,1.91,-1.25,-0.37,0,*7F
1530648075.9,7872,16.88,74120.3,1.91,-1.13,-0.29,0,*76
1530648077.13,7873,16.88,74120.5,1.89,-1.05,-0.29,0,*79
1530648078.35,7874,16.88,74122.3,1.91,-0.93,-0.27,0,*47
1530648079.58,7875,16.88,74120.0,1.89,-0.81,-0.27,0,*4C
1530648080.8,7876,16.88,74122.3,1.89,-0.77,-0.27,0,*46
1530648082.0,7877,16.88,74122.3,1.91,-0.77,-0.27,0,*4E
1530648083.2,7878,16.88,74124.8,1.89,-0.77,-0.29,0,*46
1530648084.4,7879,16.88,74122.3,1.91,-0.69,-0.27,0,*4F
1530648085.59,7880,16.88,74124.3,1.89,-0.69,-0.29,0,*4E
1530648086.79,7881,16.88,74122.5,1.89,-0.57,-0.29,0,*42
1530648088.01,7882,16.88,74120.3,1.89,-0.57,-0.27,0,*4F
1530648089.2,7883,16.88,74122.5,1.91,-0.41,-0.15,0,*41
1530648090.42,7884,16.88,74120.8,1.89,-0.45,-0.27,0,*4A
1530648091.62,7885,16.88,74118.3,1.85,-0.41,-0.19,0,*4E
1530648092.83,7886,16.88,74118.3,1.85,-0.41,-0.19,0,*4D
1530648094.05,7887,16.88,74122.5,1.85,-0.33,-0.23,0,*40
1530648095.24,7888,16.88,74124.5,1.85,-0.33,-0.29,0,*45
1530648096.43,7889,16.88,74122.5,1.85,-0.29,-0.33,0,*44
1530648097.64,7890,16.88,74120.8,1.85,-0.19,-0.33,0,*4F
1530648098.86,7891,16.88,74120.5,1.85,-0.23,-0.33,0,*47
1530648100.07,7892,16.88,74122.8,1.85,-0.11,-0.41,0,*40
1530648101.27,7893,16.88,74120.8,1.85,-0.19,-0.49,0,*41
1530648102.44,7894,16.88,74120.3,1.83,-0.29,-0.57,0,*4C
1530648103.64,7895,16.88,74118.5,1.83,-0.23,-0.61,0,*42
1530648104.83,7896,16.88,74118.5,1.85,-0.19,-0.69,0,*46
1530648106.03,7897,16.88,74122.8,1.85,-0.19,-0.81,0,*41
1530648107.28,7898,16.88,74122.0,1.85,-0.23,-0.93,0,*44
1530648108.5,7899,16.88,74122.0,1.85,-0.33,-1.09,0,*76
1530648109.67,7900,16.88,74122.8,1.83,-0.45,-1.33,0,*79
1530648110.87,7901,16.88,74122.3,1.85,-0.61,-1.55,0,*78
1530648112.08,7902,16.88,74122.5,1.83,-1.05,-1.79,0,*40
1530648113.3,7903,16.88,74120.3,1.85,-1.17,-1.79,0,*44
1530648114.51,7904,16.88,74118.0,1.83,-1.43,-1.71,0,*4C
1530648115.74,7905,16.88,74122.8,1.83,-1.35,-1.47,0,*49
1530648116.95,7906,16.88,74122.3,1.83,-1.35,-1.21,0,*4A
1530648118.18,7907,16.88,74122.8,1.83,-1.35,-1.09,0,*41
1530648119.39,7908,16.88,74116.5,1.83,-1.33,-0.97,0,*7E
1530648120.57,7909,16.88,74118.3,1.83,-1.29,-0.69,0,*75
1530648121.75,7910,16.88,74118.5,1.83,-1.17,-0.57,0,*7D
1530648122.98,7911,16.88,74118.5,1.85,-1.09,-0.49,0,*7A
1530648124.18,7912,16.88,74118.8,1.83,-1.17,-0.41,0,*78
1530648125.37,7913,16.88,74118.3,1.83,-1.09,-0.29,0,*78
1530648126.59,7914,16.88,74114.0,1.83,-1.05,-0.19,0,*70
1530648127.78,7915,16.88,74118.0,1.83,-0.93,-0.07,0,*70
1530648128.97,7916,16.88,74120.0,1.85,-0.73,0.01,0,*50
1530648130.16,7917,16.88,74116.8,1.83,-0.69,0.13,0,*6F
1530648131.35,7918,16.88,74120.0,1.83,-0.69,0.13,0,*60
1530648132.54,7919,16.88,74120.3,1.83,-0.49,0.17,0,*67
1530648133.73,7920,16.88,74118.8,1.83,-0.41,0.17,0,*65
1530648134.95,7921,16.88,74118.5,1.81,-0.45,0.21,0,*67
1530648136.17,7922,16.88,74120.3,1.81,-0.33,0.21,0,*65
1530648137.41,7923,16.88,74118.5,1.81,-0.27,0.21,0,*61
1530648138.62,7924,16.88,74118.5,1.81,-0.03,0.25,0,*54
1530648139.84,7925,16.88,74116.0,1.81,-0.03,0.37,0,*56
1530648141.03,7926,16.88,74118.5,1.81,0.01,0.25,0,*79
1530648142.23,7927,16.88,74116.5,1.79,0.05,0.21,0,*7F
1530648143.45,7928,16.88,74118.8,1.81,0.13,0.29,0,*48
1530648144.69,7929,16.88,74118.5,1.81,0.21,0.29,0,*48
1530648145.92,7930,16.88,74116.3,1.81,0.21,0.21,0,*48
1530648147.13,7931,16.88,74116.0,1.79,0.17,0.21,0,*4B
1530648148.32,7932,16.88,74120.5,1.79,0.09,0.17,0,*72
1530648149.51,7933,16.88,74118.8,1.79,0.09,0.21,0,*76
1530648150.7,7934,16.88,74116.8,1.79,0.09,0.21,0,*71
1530648151.93,7935,16.88,74118.8,1.81,0.25,0.37,0,*4E
1530648153.16,7936,16.88,74120.0,1.81,0.29,0.41,0,*40
1530648154.39,7937,16.88,74120.3,1.81,0.29,0.41,0,*41
1530648155.62,7938,16.88,74122.3,1.81,0.21,0.37,0,*47
1530648156.83,7939,16.88,74122.8,1.79,0.17,0.33,0,*40
1530648158.06,7940,16.88,74122.0,1.81,0.25,0.41,0,*4D
1530648159.29,7941,16.88,74122.3,1.81,0.29,0.41,0,*40
1530648160.49,7942,16.88,74122.3,1.79,0.33,0.37,0,*4E
1530648161.71,7943,16.88,74122.3,1.79,0.33,0.47,0,*48
1530648162.92,7944,16.88,74122.0,1.79,0.33,0.47,0,*4F
1530648164.15,7945,16.88,74122.3,1.81,0.37,0.51,0,*4A
1530648165.38,7946,16.88,74122.0,1.81,0.37,0.51,0,*49
1530648166.61,7947,16.88,74118.3,1.81,0.37,0.59,0,*40
1530648167.82,7948,16.88,74122.5,1.79,0.33,0.55,0,*40
1530648169.04,7949,16.88,74120.8,1.79,0.33,0.55,0,*41
1530648170.25,7950,16.88,74120.8,1.79,0.33,0.59,0,*45
1530648171.48,7951,16.88,74120.8,1.81,0.41,0.71,0,*4C
1530648172.69,7952,16.88,74120.0,1.79,0.37,0.59,0,*43
1530648173.92,7953,16.88,74122.5,1.81,0.47,0.63,0,*4B
1530648175.1,7954,16.88,74118.8,1.79,0.43,0.67,0,*4B
1530648176.31,7955,16.88,74120.8,1.79,0.47,0.67,0,*4E
1530648177.52,7956,16.88,74122.8,1.79,0.47,0.67,0,*4D
1530648178.74,7957,16.88,74122.3,1.79,0.55,0.71,0,*48
1530648179.97,7958,16.88,74122.3,1.81,0.59,0.71,0,*4C
1530648181.18,7959,16.88,74122.3,1.79,0.59,0.71,0,*4A
1530648182.41,7960,16.88,74120.5,1.81,0.75,0.83,0,*44
1530648183.65,7961,16.88,74120.0,1.81,0.71,0.87,0,*45
1530648184.86,7962,16.88,74120.3,1.79,0.67,0.83,0,*42
1530648186.09,7963,16.88,74116.0,1.81,0.63,0.83,0,*40
1530648187.3,7964,16.88,74120.0,1.79,0.67,0.83,0,*44
1530648188.52,7965,16.88,74116.8,1.79,0.79,0.83,0,*4A
1530648189.74,7966,16.88,74120.5,1.79,0.79,0.91,0,*4A
1530648190.96,7967,16.88,74118.5,1.79,0.87,0.83,0,*49
1530648192.2,7968,16.88,74118.0,1.81,0.83,0.83,0,*45
1530648193.42,7969,16.88,74120.3,1.79,0.83,0.83,0,*43
1530648194.66,7970,16.88,74120.8,1.81,0.87,0.87,0,*4C
1530648195.88,7971,16.88,74120.8,1.79,0.91,0.91,0,*4A
1530648197.11,7972,16.88,74120.3,1.81,0.95,0.95,0,*4E
1530648198.35,7973,16.88,74122.8,1.81,0.87,0.87,0,*4F
1530648199.59,7974,16.88,74122.5,1.81,0.95,0.87,0,*4B
1530648200.83,7975,16.88,74122.0,1.81,0.95,0.87,0,*4A
1530648202.07,7976,16.88,74118.8,1.81,0.87,0.83,0,*4E
1530648203.3,7977,16.88,74120.5,1.81,0.87,0.95,0,*48
1530648204.53,7978,16.88,74118.0,1.81,0.95,0.95,0,*44
1530648205.75,7979,16.88,74122.3,1.79,0.91,0.83,0,*41
1530648206.94,7980,16.88,74116.8,1.81,0.97,1.05,0,*79
1530648208.13,7981,16.88,74120.8,1.81,0.97,1.05,0,*78
1530648209.36,7982,16.88,74122.3,1.81,0.95,0.95,0,*41
1530648210.57,7983,16.88,74120.5,1.81,0.97,0.95,0,*42
1530648211.79,7984,16.88,74118.8,1.79,0.95,0.91,0,*44
1530648213.02,7985,16.88,74120.0,1.79,0.91,0.91,0,*41
1530648214.25,7986,16.88,74118.0,1.81,0.95,0.95,0,*45
1530648215.49,7987,16.88,74122.3,1.81,0.95,0.87,0,*47
1530648216.69,7988,16.88,74120.0,1.81,0.95,0.97,0,*49
1530648217.89,7989,16.88,74120.0,1.85,1.01,1.01,0,*4E
1530648219.05,7990,16.88,74122.8,1.83,1.01,0.97,0,*7E
1530648220.24,7991,16.88,74120.3,1.81,0.97,0.97,0,*43
1530648221.42,7992,16.88,74120.3,1.81,0.97,0.97,0,*40
1530648222.61,7993,16.88,74120.5,1.81,0.97,1.05,0,*7B
1530648223.79,7994,16.88,74118.8,1.83,1.01,1.01,0,*44
1530648224.99,7995,16.88,74116.8,1.83,1.09,1.01,0,*4D
1530648226.21,7996,16.88,74122.3,1.83,1.09,1.09,0,*46
1530648227.47,7997,16.88,74118.5,1.85,1.09,1.09,0,*41
1530648228.67,7998,16.88,74118.5,1.83,1.09,1.01,0,*40
1530648229.87,7999,16.88,74120.3,1.83,1.09,1.01,0,*41
1530648231.06,8000,16.88,74122.8,1.83,0.91,0.97,0,*49
1530648232.27,8001,16.88,74122.0,1.85,0.91,0.97,0,*4E
1530648233.48,8002,16.88,74122.0,1.83,0.87,0.79,0,*4C
1530648234.67,8003,16.88,74122.8,1.85,0.97,0.97,0,*4A
1530648235.84,8004,16.88,74120.8,1.83,0.97,1.01,0,*75
1530648237.05,8005,16.88,74126.0,1.85,0.91,0.97,0,*4A
1530648238.21,8006,16.88,74122.3,1.83,0.97,0.97,0,*49
1530648239.41,8007,16.88,74122.5,1.83,0.97,1.09,0,*7E
1530648240.57,8008,16.88,74126.8,1.83,0.97,0.97,0,*47
1530648241.77,8009,16.88,74122.3,1.83,0.97,0.91,0,*40
1530648242.93,8010,16.88,74120.8,1.83,0.97,0.97,0,*4E
1530648244.15,8011,16.88,74120.3,1.83,0.91,0.91,0,*4F
1530648245.32,8012,16.88,74122.5,1.83,0.97,0.97,0,*4C
1530648246.48,8013,16.88,74122.5,1.83,0.97,0.97,0,*4D
1530648247.67,8014,16.88,74122.8,1.83,0.97,0.91,0,*4C
1530648248.87,8015,16.88,74120.3,1.83,0.97,0.91,0,*4D
1530648250.12,8016,16.88,74120.3,1.85,0.91,0.91,0,*4E
1530648251.31,8017,16.88,74122.3,1.83,0.97,0.91,0,*4F
1530648252.54,8018,16.88,74120.5,1.83,0.91,0.91,0,*46
1530648253.73,8019,16.88,74120.3,1.83,0.97,0.91,0,*41
1530648254.96,8020,16.88,74122.3,1.83,0.91,0.91,0,*4D
1530648256.15,8021,16.88,74120.5,1.83,0.97,0.91,0,*4A
1530648257.4,8022,16.88,74122.3,1.85,0.91,0.91,0,*49
1530648258.6,8023,16.88,74122.8,1.83,0.97,0.91,0,*48
1530648259.76,8024,16.88,74120.0,1.83,0.97,0.97,0,*49
1530648260.92,8025,16.88,74118.0,1.83,0.97,0.97,0,*48
1530648262.08,8026,16.88,74120.8,1.83,0.97,0.97,0,*4B
1530648263.25,8027,16.88,74118.5,1.83,1.01,0.97,0,*74
1530648264.41,8028,16.88,74122.5,1.83,0.97,0.97,0,*45
1530648265.57,8029,16.88,74120.8,1.83,0.97,0.97,0,*44
1530648266.77,8030,16.88,74120.3,1.83,0.97,0.91,0,*4A
1530648267.97,8031,16.88,74122.0,1.83,0.97,0.91,0,*4B
1530648269.18,8032,16.88,74118.8,1.85,0.91,0.97,0,*4E
1530648270.38,8033,16.88,74122.0,1.83,0.97,0.91,0,*49
1530648271.6,8034,16.88,74122.5,1.83,0.91,0.91,0,*48
1530648272.8,8035,16.88,74118.0,1.83,0.97,0.91,0,*4F
1530648273.99,8036,16.88,74122.3,1.83,0.97,0.91,0,*4C
1530648275.21,8037,16.88,74120.3,1.83,0.91,0.91,0,*4B
1530648276.4,8038,16.88,74122.5,1.85,0.97,0.97,0,*42
1530648277.6,8039,16.88,74122.0,1.83,0.97,0.91,0,*43
1530648278.82,8040,16.88,74120.0,1.85,0.97,0.91,0,*4B
1530648280.01,8041,16.88,74122.5,1.83,0.97,0.79,0,*4A
1530648281.25,8042,16.88,74120.8,1.85,0.91,0.91,0,*4F
1530648282.48,8043,16.88,74122.5,1.83,0.91,0.91,0,*48
1530648283.7,8044,16.88,74120.5,1.83,0.91,0.91,0,*4F
1530648284.92,8045,16.88,74116.3,1.83,0.91,0.91,0,*4E
1530648286.11,8046,16.88,74120.8,1.83,0.91,0.97,0,*4B
1530648287.31,8047,16.88,74118.5,1.83,0.97,0.91,0,*4A
1530648288.52,8048,16.88,74122.3,1.85,0.91,0.97,0,*43
1530648289.74,8049,16.88,74122.8,1.85,0.91,0.97,0,*42
1530648290.9,8050,16.88,74126.0,1.83,0.97,0.97,0,*4A
1530648292.07,8051,16.88,74122.5,1.83,0.97,1.01,0,*75
1530648293.29,8052,16.88,74120.0,1.85,1.09,1.01,0,*46
1530648294.54,8053,16.88,74120.8,1.85,1.09,1.09,0,*4F
1530648295.73,8054,16.88,74122.5,1.85,0.97,0.97,0,*48
1530648296.91,8055,16.88,74118.8,1.85,0.97,0.97,0,*49
1530648298.11,8056,16.88,74120.0,1.85,0.97,1.01,0,*74
1530648299.3,8057,16.88,74120.8,1.83,0.91,0.97,0,*4B
1530648300.51,8058,16.88,74120.3,1.85,0.91,0.97,0,*42
1530648301.71,8059,16.88,74116.0,1.83,0.97,0.91,0,*45
1530648302.95,8060,16.88,74118.3,1.85,0.87,0.87,0,*4F
1530648304.19,8061,16.88,74122.3,1.85,0.91,0.87,0,*49
1530648305.4,8062,16.88,74122.5,1.85,0.91,0.97,0,*4B
1530648306.57,8063,16.88,74122.0,1.83,0.97,0.97,0,*4A
1530648307.73,8064,16.88,74120.3,1.83,0.97,1.01,0,*73
1530648308.93,8065,16.88,74118.0,1.85,0.97,1.01,0,*74
1530648310.12,8066,16.88,74122.5,1.85,1.01,1.01,0,*49
1530648311.31,8067,16.88,74118.5,1.85,1.01,1.01,0,*48
1530648312.51,8068,16.88,74120.0,1.83,1.01,1.09,0,*49
1530648313.71,8069,16.88,74118.3,1.85,0.97,1.01,0,*78
1530648314.9,8070,16.88,74118.8,1.85,1.01,1.01,0,*4E
1530648316.12,8071,16.88,74122.8,1.85,1.09,1.01,0,*47
1530648317.31,8072,16.88,74118.8,1.85,1.01,0.97,0,*72
1530648318.51,8073,16.88,74122.0,1.85,1.01,1.01,0,*4D
1530648319.7,8074,16.88,74120.8,1.85,1.01,1.01,0,*4A
1530648320.9,8075,16.88,74116.8,1.85,1.01,1.01,0,*4B
1530648322.15,8076,16.88,74120.5,1.85,1.09,1.09,0,*48
1530648323.34,8077,16.88,74122.5,1.85,1.01,1.01,0,*49
1530648324.54,8078,16.88,74120.0,1.85,1.01,1.01,0,*46
1530648325.73,8079,16.88,74120.5,1.89,1.05,1.05,0,*4B
1530648326.93,8080,16.88,74120.5,1.85,1.01,1.01,0,*41
1530648328.15,8081,16.88,74120.3,1.85,1.09,1.01,0,*48
1530648329.35,8082,16.88,74122.0,1.89,1.05,1.05,0,*4F
1530648330.57,8083,16.88,74118.8,1.89,1.05,1.13,0,*49
1530648331.76,8084,16.88,74122.3,1.89,1.05,1.05,0,*49
1530648332.96,8085,16.88,74120.0,1.89,1.05,1.01,0,*4C
1530648334.18,8086,16.88,74120.8,1.89,1.13,1.01,0,*48
1530648335.39,8087,16.88,74122.0,1.89,1.01,0.95,0,*76
1530648336.61,8088,16.88,74122.3,1.89,1.01,0.95,0,*79
1530648337.8,8089,16.88,74120.5,1.85,1.01,0.97,0,*76
1530648339.01,8090,16.88,74122.3,1.89,1.01,0.95,0,*70
1530648340.22,8091,16.88,74120.0,1.89,1.05,0.95,0,*75
1530648341.42,8092,16.88,74124.5,1.89,1.05,1.01,0,*4A
1530648342.59,8093,16.88,74126.0,1.91,1.05,1.01,0,*42
1530648343.82,8094,16.88,74124.3,1.89,0.95,0.95,0,*48
1530648345.05,8095,16.88,74120.8,1.89,0.95,0.95,0,*49
1530648346.26,8096,16.88,74122.3,1.89,1.01,0.95,0,*76
1530648347.45,8097,16.88,74122.8,1.91,1.01,0.95,0,*7E
1530648348.68,8098,16.88,74122.5,1.89,0.95,0.95,0,*44
1530648349.91,8099,16.88,74120.3,1.89,0.95,0.95,0,*45
1530648351.15,8100,16.88,74120.5,1.89,0.95,0.91,0,*40
1530648352.39,8101,16.88,74120.5,1.89,0.95,0.83,0,*42
1530648353.62,8102,16.88,74122.0,1.89,0.95,0.83,0,*41
1530648354.86,8103,16.88,74122.8,1.89,0.95,0.83,0,*40
1530648356.09,8104,16.88,74122.8,1.89,0.95,0.83,0,*47
1530648357.33,8105,16.88,74122.0,1.89,0.95,0.91,0,*45
1530648358.56,8106,16.88,74122.8,1.89,0.95,0.95,0,*42
1530648359.8,8107,16.88,74120.3,1.89,0.95,0.91,0,*47
1530648361.04,8108,16.88,74120.3,1.89,0.95,0.91,0,*48
1530648362.25,8109,16.88,74120.3,1.89,1.01,0.95,0,*71
1530648363.49,8110,16.88,74122.0,1.89,0.91,0.95,0,*41
1530648364.73,8111,16.88,74122.5,1.89,0.95,0.83,0,*43
1530648365.97,8112,16.88,74120.5,1.89,0.95,0.91,0,*43
1530648367.2,8113,16.88,74120.0,1.89,0.83,0.79,0,*43
1530648368.44,8114,16.88,74122.8,1.89,0.91,0.83,0,*42
1530648369.66,8115,16.88,74122.5,1.91,0.83,0.83,0,*49
1530648370.9,8116,16.88,74116.8,1.89,0.83,0.83,0,*43
1530648372.14,8117,16.88,74122.8,1.89,0.83,0.91,0,*41
1530648373.36,8118,16.88,74120.0,1.91,0.91,0.91,0,*44
1530648374.6,8119,16.88,74122.5,1.89,0.91,0.95,0,*48
1530648375.84,8120,16.88,74122.3,1.89,0.83,0.91,0,*45
1530648377.09,8121,16.88,74122.0,1.89,0.91,0.91,0,*47
1530648378.33,8122,16.88,74116.8,1.89,0.91,0.83,0,*47
1530648379.58,8123,16.88,74118.0,1.89,0.91,0.83,0,*46
1530648380.82,8124,16.88,74120.5,1.89,0.91,0.91,0,*42
1530648382.04,8125,16.88,74116.8,1.91,0.83,0.91,0,*49
1530648383.26,8126,16.88,74120.0,1.91,0.79,0.79,0,*49
1530648384.49,8127,16.88,74122.8,1.89,0.83,0.79,0,*44
1530648385.74,8128,16.88,74124.5,1.89,0.91,0.91,0,*4E
1530648386.98,8129,16.88,74122.0,1.89,0.83,0.83,0,*4F
1530648388.21,8130,16.88,74124.3,1.89,0.91,0.95,0,*43
1530648389.46,8131,16.88,74122.8,1.89,0.91,0.83,0,*45
1530648390.68,8132,16.88,74122.5,1.91,0.91,0.91,0,*4C
1530648391.91,8133,16.88,74120.8,1.91,0.91,0.91,0,*4D
1530648393.14,8134,16.88,74122.0,1.91,0.91,0.91,0,*4A
1530648394.36,8135,16.88,74120.3,1.91,0.91,0.91,0,*4B
1530648395.59,8136,16.88,74120.0,1.89,0.95,0.95,0,*41
1530648396.8,8137,16.88,74122.5,1.89,1.01,0.95,0,*7C
1530648397.99,8138,16.88,74116.3,1.91,0.95,1.01,0,*7A
1530648399.2,8139,16.88,74120.3,1.91,0.95,0.95,0,*47
1530648400.39,8140,16.88,74118.3,1.91,0.95,1.01,0,*75
1530648401.61,8141,16.88,74120.5,1.89,1.01,0.95,0,*7D
1530648402.82,8142,16.88,74122.8,1.91,0.91,0.95,0,*4F
1530648404.04,8143,16.88,74118.3,1.91,0.91,0.95,0,*4E
1530648405.25,8144,16.88,74122.5,1.91,0.91,0.95,0,*49
1530648406.47,8145,16.88,74120.5,1.91,0.91,0.95,0,*48
1530648407.69,8146,16.88,74118.8,1.91,0.91,0.95,0,*4B
1530648408.9,8147,16.88,74118.8,1.91,0.91,0.95,0,*4A
1530648410.12,8148,16.88,74122.8,1.91,0.83,0.91,0,*42
1530648411.36,8149,16.88,74122.8,1.89,0.83,0.83,0,*49
1530648412.58,8150,16.88,74120.3,1.91,0.83,0.83,0,*48
1530648413.78,8151,16.88,74120.0,1.91,0.59,0.67,0,*44
1530648415.02,8152,16.88,74122.3,1.93,0.71,0.71,0,*48
1530648416.25,8153,16.88,74120.8,1.93,0.63,0.71,0,*4A
1530648417.46,8154,16.88,74122.0,1.91,0.67,0.79,0,*43
1530648418.67,8155,16.88,74122.8,1.91,0.71,0.79,0,*45
1530648419.88,8156,16.88,74118.8,1.91,0.71,0.83,0,*43
1530648421.1,8157,16.88,74122.5,1.91,0.71,0.91,0,*41
1530648422.32,8158,16.88,74122.8,1.91,0.71,0.83,0,*4D
1530648423.54,8159,16.88,74118.3,1.91,0.79,0.91,0,*47
1530648424.76,8160,16.88,74122.3,1.91,0.79,0.91,0,*4D
1530648425.99,8161,16.88,74118.8,1.91,0.91,0.91,0,*4A
1530648427.2,8162,16.88,74118.3,1.91,0.83,0.95,0,*4E
1530648428.41,8163,16.88,74122.0,1.91,0.83,0.95,0,*4F
1530648429.63,8164,16.88,74120.5,1.91,0.83,0.91,0,*4C
1530648430.84,8165,16.88,74116.0,1.91,0.91,0.95,0,*4A
1530648432.05,8166,16.88,74116.0,1.91,0.83,0.95,0,*4A
1530648433.26,8167,16.88,74122.5,1.91,0.83,0.95,0,*4B
1530648434.48,8168,16.88,74122.8,1.91,0.91,0.95,0,*47
1530648435.69,8169,16.88,74118.0,1.93,0.95,0.97,0,*42
1530648436.88,8170,16.88,74120.3,1.91,0.83,1.01,0,*71
1530648438.09,8171,16.88,74118.5,1.91,0.83,0.95,0,*4C
1530648439.31,8172,16.88,74122.3,1.91,0.91,0.95,0,*4C
1530648440.52,8173,16.88,74122.8,1.91,0.91,0.95,0,*4D
1530648441.73,8174,16.88,74118.8,1.93,0.87,0.97,0,*4D
1530648442.94,8175,16.88,74122.0,1.91,0.83,0.95,0,*48
1530648444.18,8176,16.88,74122.8,1.93,0.87,0.95,0,*4D
1530648445.43,8177,16.88,74120.5,1.93,0.87,0.87,0,*4F
1530648446.66,8178,16.88,74118.3,1.93,0.87,0.95,0,*43
1530648447.87,8179,16.88,74122.5,1.95,0.87,0.95,0,*44
1530648449.1,8180,16.88,74116.5,1.93,0.95,0.95,0,*47
1530648450.32,8181,16.88,74120.8,1.91,0.83,0.91,0,*47
1530648451.54,8182,16.88,74120.3,1.91,0.83,0.91,0,*44
1530648452.78,8183,16.88,74116.5,1.93,0.83,0.87,0,*40
1530648454.01,8184,16.88,74122.3,1.91,0.91,0.91,0,*41
1530648455.21,8185,16.88,74122.5,1.93,0.97,1.05,0,*78
1530648456.38,8186,16.88,74120.3,1.95,1.05,1.05,0,*47
1530648457.57,8187,16.88,74122.5,1.93,0.97,1.05,0,*7A
1530648458.76,8188,16.88,74122.0,1.93,0.97,0.97,0,*4F
1530648459.95,8189,16.88,74116.8,1.93,0.97,0.97,0,*4E
1530648461.16,8190,16.88,74118.3,1.95,0.95,0.95,0,*40
1530648462.37,8191,16.88,74120.5,1.93,0.95,0.97,0,*45
1530648463.56,8192,16.88,74118.8,1.93,1.05,0.97,0,*7E
1530648464.77,8193,16.88,74118.8,1.91,0.95,0.95,0,*47
1530648465.98,8194,16.88,74122.0,1.91,0.95,0.95,0,*40
1530648467.17,8195,16.88,74122.0,1.93,1.05,0.97,0,*79
1530648468.41,8196,16.88,74122.0,1.93,0.87,0.95,0,*43
1530648469.61,8197,16.88,74118.8,1.95,0.95,0.95,0,*47
1530648470.8,8198,16.88,74118.8,1.93,0.97,0.97,0,*4E
1530648471.99,8199,16.88,74116.8,1.93,1.05,0.97,0,*75
1530648473.18,8200,16.88,74120.0,1.93,0.97,0.97,0,*4C
1530648474.37,8201,16.88,74122.8,1.93,1.05,0.97,0,*77
1530648475.57,8202,16.88,74122.0,1.93,1.05,0.97,0,*74
1530648476.76,8203,16.88,74122.5,1.93,1.05,0.97,0,*75
1530648477.95,8204,16.88,74120.0,1.93,0.97,0.97,0,*48
1530648479.15,8205,16.88,74122.3,1.95,1.05,0.87,0,*74
1530648480.33,8206,16.88,74120.3,1.95,0.97,0.95,0,*4E
1530648481.55,8207,16.88,74122.8,1.93,0.97,0.87,0,*4A
1530648482.76,8208,16.88,74120.5,1.93,0.97,0.95,0,*46
1530648483.98,8209,16.88,74118.5,1.93,0.97,0.95,0,*47
1530648485.2,8210,16.88,74120.8,1.93,1.05,0.87,0,*76
1530648486.42,8211,16.88,74122.0,1.95,0.87,0.83,0,*4E
1530648487.63,8212,16.88,74120.8,1.95,0.87,0.75,0,*44
1530648488.87,8213,16.88,74122.3,1.93,0.95,0.75,0,*40
1530648490.09,8214,16.88,74122.5,1.93,0.97,0.75,0,*45
1530648491.31,8215,16.88,74122.8,1.93,0.97,0.75,0,*44
1530648492.51,8216,16.88,74122.0,1.95,0.97,0.75,0,*41
1530648493.72,8217,16.88,74122.0,1.93,0.97,0.71,0,*42
1530648494.92,8218,16.88,74120.8,1.95,1.05,0.71,0,*71
1530648496.15,8219,16.88,74120.8,1.93,0.95,0.63,0,*4D
1530648497.35,8220,16.88,74120.8,1.95,0.97,0.63,0,*43
1530648498.54,8221,16.88,74122.3,1.95,0.97,0.63,0,*42
1530648499.78,8222,16.88,74122.3,1.93,0.95,0.59,0,*4C
1530648501.02,8223,16.88,74116.8,1.93,0.95,0.51,0,*45
1530648502.24,8224,16.88,74120.5,1.95,0.87,0.47,0,*40
1530648503.45,8225,16.88,74116.3,1.95,0.83,0.37,0,*42
1530648504.69,8226,16.88,74120.5,1.93,0.83,0.37,0,*47
1530648505.92,8227,16.88,74120.8,1.93,0.75,0.37,0,*4F
1530648507.13,8228,16.88,74120.3,1.95,0.75,0.33,0,*42
1530648508.36,8229,16.88,74120.8,1.93,0.75,0.25,0,*42
1530648509.56,8230,16.88,74120.5,1.95,0.75,0.25,0,*4C
1530648510.8,8231,16.88,74122.5,1.93,0.71,0.33,0,*48
1530648512.03,8232,16.88,74120.3,1.93,0.75,0.37,0,*4B
1530648513.26,8233,16.88,74124.8,1.93,0.71,0.25,0,*4D
1530648514.5,8234,16.88,74120.8,1.93,0.71,0.21,0,*4E
1530648515.72,8235,16.88,74118.5,1.95,0.63,0.21,0,*4A
1530648516.93,8236,16.88,74118.3,1.95,0.59,0.21,0,*40
1530648518.11,8237,16.88,74120.8,1.95,0.59,0.09,0,*7B
1530648519.32,8238,16.88,74118.8,1.95,0.59,0.13,0,*4F
1530648520.55,8239,16.88,74120.3,1.93,0.59,0.13,0,*48
1530648521.73,8240,16.88,74122.3,1.95,0.59,0.09,0,*7B
1530648522.94,8241,16.88,74120.0,1.93,0.59,0.01,0,*74
1530648524.17,8242,16.88,74120.8,1.93,0.59,0.13,0,*44
1530648525.38,8243,16.88,74120.0,1.93,0.59,0.09,0,*7E
1530648526.59,8244,16.88,74120.8,1.93,0.51,0.01,0,*79
1530648527.8,8245,16.88,74120.8,1.93,0.59,-0.03,0,*5F
1530648528.99,8246,16.88,74120.3,1.95,0.51,-0.03,0,*52
1530648530.21,8247,16.88,74120.3,1.93,0.51,-0.11,0,*66
1530648531.41,8248,16.88,74122.3,1.95,0.51,-0.15,0,*6B
1530648532.65,8249,16.88,74124.3,1.93,0.51,-0.27,0,*6D